EW8310 Weather Reports


Display with metric or nautical units.
time (UTC)temp
F
wind
direction
speed
MPH
gust
MPH
rain 1hr
in
rain 24hr
in
rain mn
in
humidity
%
barometer
mb
20260507103557 56 18 0.0 0.0 0.00 0.00 0.00 53 1009.6
20260507102827 56 18 0.0 0.0 0.00 0.00 0.00 53 1009.6
20260507102328 56 18 0.0 0.0 0.00 0.00 0.00 48 1009.6
20260507101828 56 18 0.0 0.0 0.00 0.00 0.00 49 1009.6
20260507101327 56 18 0.0 0.0 0.00 0.00 0.00 51 1009.6
20260507101051 55 18 0.0 0.0 0.00 0.00 0.00 53 1009.6
20260507100328 56 18 0.0 0.0 0.00 0.00 0.00 52 1009.7
20260507095827 56 18 0.0 0.0 0.00 0.00 0.00 51 1009.7
20260507095327 57 18 0.0 0.0 0.00 0.00 0.00 50 1009.7
20260507094827 57 20 0.0 0.0 0.00 0.00 0.00 48 1009.8
20260507094327 58 20 0.0 0.0 0.00 0.00 0.00 46 1009.8
20260507094056 57 20 0.0 0.0 0.00 0.00 0.00 47 1009.9
20260507093327 58 20 0.0 0.0 0.00 0.00 0.00 47 1009.9
20260507092827 59 21 0.0 0.0 0.00 0.00 0.00 45 1010.0
20260507092550 59 25 0.0 1.0 0.00 0.00 0.00 43 1010.0
20260507091826 59 41 0.0 1.0 0.00 0.00 0.00 43 1010.1
20260507091326 60 55 0.0 0.0 0.00 0.00 0.00 43 1010.1
20260507090826 60 62 0.0 0.0 0.00 0.00 0.00 42 1010.2
20260507090325 59 62 0.0 0.0 0.00 0.00 0.00 42 1010.2
20260507090049 60 62 0.0 0.0 0.00 0.00 0.00 43 1010.2
20260507085326 60 62 0.0 0.0 0.00 0.00 0.00 42 1010.2
20260507084825 60 48 0.0 2.0 0.00 0.00 0.00 41 1010.2
20260507084325 60 55 0.0 3.0 0.00 0.00 0.00 41 1010.2
20260507083825 60 44 0.0 3.0 0.00 0.00 0.00 42 1010.2
20260507083549 60 27 0.0 1.0 0.00 0.00 0.00 42 1010.1
20260507082826 60 68 0.0 2.0 0.00 0.00 0.00 44 1010.2
20260507082759 60 68 0.0 2.0 0.00 0.00 0.00 43 1010.3
20260507081825 60 45 0.0 1.0 0.00 0.00 0.00 44 1010.3
20260507081324 60 41 0.0 1.0 0.00 0.00 0.00 44 1010.3
20260507080824 60 38 0.0 0.0 0.00 0.00 0.00 43 1010.2
20260507080805 59 38 0.0 0.0 0.00 0.00 0.00 45 1010.3
20260507080048 59 39 0.0 0.0 0.00 0.00 0.00 46 1010.2
20260507075324 58 38 0.0 0.0 0.00 0.00 0.00 49 1010.2
20260507074825 58 38 0.0 0.0 0.00 0.00 0.00 47 1010.2
20260507074324 58 38 0.0 0.0 0.00 0.00 0.00 49 1010.2
20260507073824 58 55 0.0 0.0 0.00 0.00 0.00 49 1010.1
20260507073324 59 55 0.0 0.0 0.00 0.00 0.00 48 1010.2
20260507072823 59 54 0.0 0.0 0.00 0.00 0.00 49 1010.1
20260507072545 59 54 0.0 0.0 0.00 0.00 0.00 48 1010.1
20260507071823 59 54 0.0 0.0 0.00 0.00 0.00 48 1010.0
20260507071323 59 54 0.0 0.0 0.00 0.00 0.00 47 1010.1
20260507070823 60 54 0.0 0.0 0.00 0.00 0.00 48 1010.2
20260507070323 59 54 0.0 0.0 0.00 0.00 0.00 45 1010.1
20260507065823 59 89 0.0 0.0 0.00 0.00 0.00 47 1010.1
20260507065323 59 117 0.0 0.0 0.00 0.00 0.00 48 1010.2
20260507064823 59 117 0.0 0.0 0.00 0.00 0.00 48 1010.3
20260507064323 59 117 0.0 0.0 0.00 0.00 0.00 48 1010.3
20260507063822 59 117 0.0 0.0 0.00 0.00 0.00 47 1010.2
20260507063323 60 117 0.0 0.0 0.00 0.00 0.00 46 1010.2
20260507063042 60 117 0.0 0.0 0.00 0.00 0.00 44 1010.2
20260507062323 60 118 0.0 0.0 0.00 0.00 0.00 45 1010.2
20260507061822 60 30 0.0 0.0 0.00 0.00 0.00 45 1010.1
20260507061323 61 30 0.0 0.0 0.00 0.00 0.00 43 1010.0
20260507060822 61 30 0.0 0.0 0.00 0.00 0.00 43 1010.0
20260507060322 61 30 0.0 0.0 0.00 0.00 0.00 43 1009.9
20260507055822 60 30 0.0 0.0 0.00 0.00 0.00 44 1010.0
20260507055322 60 30 0.0 0.0 0.00 0.00 0.00 44 1010.0
20260507054821 60 30 0.0 0.0 0.00 0.00 0.00 44 1010.0
20260507054321 60 30 0.0 0.0 0.00 0.00 0.00 45 1009.9
20260507053821 60 31 0.0 0.0 0.00 0.00 0.00 45 1009.9
20260507053546 61 30 0.0 0.0 0.00 0.00 0.00 45 1009.9
20260507052820 61 30 0.0 0.0 0.00 0.00 0.00 46 1009.9
20260507052321 61 30 0.0 0.0 0.00 0.00 0.00 44 1009.9
20260507051821 61 31 0.0 0.0 0.00 0.00 0.00 44 1009.9
20260507051320 62 31 0.0 0.0 0.00 0.00 0.00 46 1009.9
20260507050820 62 30 0.0 0.0 0.00 0.00 0.00 44 1009.9
20260507050801 63 30 0.0 0.0 0.00 0.00 0.00 40 1009.8
20260507045820 64 30 0.0 0.0 0.00 0.00 0.00 38 1009.8
20260507045320 65 31 0.0 0.0 0.00 0.00 0.00 40 1009.8
20260507045043 65 52 0.0 0.0 0.00 0.00 0.00 37 1009.8
20260507044320 65 52 0.0 1.0 0.00 0.00 0.00 36 1009.8
20260507043819 64 54 0.0 1.0 0.00 0.00 0.00 38 1009.7
20260507043319 64 63 0.0 0.0 0.00 0.00 0.00 41 1009.8
20260507042819 64 62 0.0 0.0 0.00 0.00 0.00 39 1009.8
20260507042545 65 62 0.0 0.0 0.00 0.00 0.00 38 1009.8
20260507042039 65 62 0.0 0.0 0.00 0.00 0.00 37 1009.6
20260507041537 65 62 0.0 0.0 0.00 0.00 0.00 38 1009.7
20260507040820 65 62 0.0 0.0 0.00 0.00 0.00 39 1009.6
20260507040319 65 62 0.0 0.0 0.00 0.00 0.00 40 1009.6
20260507035819 65 62 0.0 0.0 0.00 0.00 0.00 37 1009.6
20260507035319 65 48 0.0 0.0 0.00 0.00 0.00 42 1009.6
20260507034818 65 48 0.0 0.0 0.00 0.00 0.00 40 1009.4
20260507034319 66 48 0.0 0.0 0.00 0.00 0.00 40 1009.4
20260507033818 66 48 0.0 0.0 0.00 0.00 0.00 36 1009.2
20260507033318 67 48 0.0 2.0 0.00 0.00 0.00 38 1009.2
20260507032818 67 49 0.0 3.0 0.00 0.00 0.00 37 1009.1
20260507032318 67 39 1.0 3.0 0.00 0.00 0.00 37 1009.1
20260507032038 67 320 0.0 0.0 0.00 0.00 0.00 39 1009.2
20260507031318 67 320 0.0 0.0 0.00 0.00 0.00 38 1009.1
20260507030818 67 320 0.0 0.0 0.00 0.00 0.00 37 1009.0
20260507030318 67 320 0.0 0.0 0.00 0.00 0.00 34 1008.9
20260507030041 68 303 0.0 0.0 0.00 0.00 0.00 33 1008.8
20260507025317 69 303 0.0 0.0 0.00 0.00 0.00 32 1008.7
20260507024817 70 303 0.0 0.0 0.00 0.00 0.00 29 1008.8
20260507024316 70 302 0.0 3.0 0.00 0.00 0.00 28 1008.6
20260507024037 71 32 1.0 3.0 0.00 0.00 0.00 26 1008.6
20260507023317 71 319 0.0 2.0 0.00 0.00 0.00 24 1008.6
20260507022817 71 274 0.0 2.0 0.00 0.00 0.00 23 1008.5
20260507022317 71 269 0.0 2.0 0.00 0.00 0.00 23 1008.5
20260507022034 72 244 1.0 4.0 0.00 0.00 0.00 24 1008.5
20260507021317 72 296 0.0 4.0 0.00 0.00 0.00 23 1008.4
20260507020817 73 289 0.0 0.0 0.00 0.00 0.00 23 1008.5
20260507020316 74 313 0.0 2.0 0.00 0.00 0.00 23 1008.4
20260507015815 74 219 0.0 5.0 0.00 0.00 0.00 22 1008.4
20260507015316 75 306 1.0 5.0 0.00 0.00 0.00 21 1008.4
20260507014816 75 290 0.0 4.0 0.00 0.00 0.00 22 1008.3
20260507014316 76 274 1.0 5.0 0.00 0.00 0.00 22 1008.4
20260507013815 76 286 2.0 6.0 0.00 0.00 0.00 21 1008.4
20260507013315 76 292 2.0 6.0 0.00 0.00 0.00 22 1008.4
20260507012815 76 289 2.0 7.0 0.00 0.00 0.00 22 1008.4
20260507012316 76 292 4.0 10.0 0.00 0.00 0.00 21 1008.4
20260507011814 76 279 4.0 10.0 0.00 0.00 0.00 21 1008.4
20260507011533 76 327 5.0 10.0 0.00 0.00 0.00 21 1008.5
20260507010815 76 292 4.0 10.0 0.00 0.00 0.00 21 1008.4
20260507010315 76 289 6.0 13.0 0.00 0.00 0.00 21 1008.4
20260507005815 77 354 6.0 13.0 0.00 0.00 0.00 21 1008.4
20260507005537 77 300 5.0 11.0 0.00 0.00 0.00 21 1008.4
20260507004815 77 326 3.0 11.0 0.00 0.00 0.00 21 1008.5
20260507004315 77 305 6.0 12.0 0.00 0.00 0.00 21 1008.5
20260507003813 77 324 4.0 12.0 0.00 0.00 0.00 21 1008.4
20260507003314 77 269 7.0 12.0 0.00 0.00 0.00 21 1008.4
20260507002813 78 269 5.0 10.0 0.00 0.00 0.00 21 1008.4
20260507002315 78 276 5.0 11.0 0.00 0.00 0.00 21 1008.4
20260507001814 78 286 6.0 12.0 0.00 0.00 0.00 20 1008.3
20260507001314 78 255 4.0 12.0 0.00 0.00 0.00 21 1008.3
20260507000813 78 192 5.0 11.0 0.00 0.00 0.00 21 1008.3
20260507000314 77 326 6.0 13.0 0.00 0.00 0.00 21 1008.3
20260506235813 78 289 7.0 13.0 0.00 0.00 0.00 21 1008.2
20260506235313 78 290 3.0 12.0 0.00 0.00 0.00 21 1008.3
20260506234813 78 220 4.0 11.0 0.00 0.00 0.00 21 1008.2
20260506234312 78 258 6.0 11.0 0.00 0.00 0.00 21 1008.2
20260506233812 79 295 5.0 14.0 0.00 0.00 0.00 21 1008.3
20260506233312 79 293 4.0 14.0 0.00 0.00 0.00 21 1008.3
20260506232812 79 204 4.0 13.0 0.00 0.00 0.00 21 1008.3
20260506232532 79 269 4.0 11.0 0.00 0.00 0.00 21 1008.3
20260506231812 78 166 3.0 11.0 0.00 0.00 0.00 21 1008.3
20260506231312 78 244 4.0 12.0 0.00 0.00 0.00 21 1008.4
20260506230812 78 275 6.0 12.0 0.00 0.00 0.00 21 1008.4
20260506230804 78 233 4.0 10.0 0.00 0.00 0.00 22 1008.5
20260506225812 78 299 6.0 10.0 0.00 0.00 0.00 22 1008.5
20260506225311 78 255 5.0 16.0 0.00 0.00 0.00 22 1008.5
20260506224811 78 250 8.0 16.0 0.00 0.00 0.00 22 1008.6
20260506224312 78 241 6.0 15.0 0.00 0.00 0.00 23 1008.6
20260506224305 78 261 6.0 15.0 0.00 0.00 0.00 23 1008.6
20260506223532 78 324 3.0 14.0 0.00 0.00 0.00 23 1008.5
20260506222811 78 261 3.0 11.0 0.00 0.00 0.00 22 1008.6
20260506222533 79 243 3.0 10.0 0.00 0.00 0.00 23 1008.7
20260506221810 78 262 4.0 12.0 0.00 0.00 0.00 23 1008.7
20260506221530 78 293 4.0 12.0 0.00 0.00 0.00 23 1008.7
20260506220811 77 220 5.0 12.0 0.00 0.00 0.00 23 1008.7
20260506220311 78 303 8.0 12.0 0.00 0.00 0.00 23 1008.8
20260506220029 78 230 5.0 12.0 0.00 0.00 0.00 23 1008.8
20260506215311 78 278 3.0 11.0 0.00 0.00 0.00 23 1008.9
20260506215253 78 250 3.0 11.0 0.00 0.00 0.00 23 1008.8
20260506214310 79 302 3.0 9.0 0.00 0.00 0.00 23 1009.1
20260506213810 78 221 2.0 7.0 0.00 0.00 0.00 24 1009.1
20260506213309 76 266 3.0 9.0 0.00 0.00 0.00 25 1009.1
20260506212809 76 289 3.0 11.0 0.00 0.00 0.00 24 1009.2
20260506212309 77 271 5.0 11.0 0.00 0.00 0.00 24 1009.4
20260506211809 77 250 5.0 10.0 0.00 0.00 0.00 24 1009.5
20260506211310 78 271 2.0 7.0 0.00 0.00 0.00 24 1009.5
20260506210810 78 251 3.0 12.0 0.00 0.00 0.00 24 1009.5
20260506210309 78 137 2.0 12.0 0.00 0.00 0.00 24 1009.5
20260506205809 78 258 2.0 11.0 0.00 0.00 0.00 24 1009.6
20260506205309 78 230 4.0 11.0 0.00 0.00 0.00 25 1009.6
20260506204808 78 164 3.0 10.0 0.00 0.00 0.00 25 1009.8
20260506204309 77 168 4.0 10.0 0.00 0.00 0.00 26 1009.8
20260506204028 76 230 4.0 9.0 0.00 0.00 0.00 26 1009.8
20260506203309 77 224 4.0 11.0 0.00 0.00 0.00 26 1009.8
20260506203041 77 195 5.0 11.0 0.00 0.00 0.00 26 1009.9
20260506202308 77 251 2.0 10.0 0.00 0.00 0.00 25 1010.0
20260506201807 77 248 4.0 9.0 0.00 0.00 0.00 26 1010.0
20260506201308 77 223 3.0 10.0 0.00 0.00 0.00 27 1010.0
20260506201253 76 207 5.0 10.0 0.00 0.00 0.00 28 1010.1
20260506200308 76 161 2.0 11.0 0.00 0.00 0.00 28 1010.1
20260506200024 76 212 5.0 11.0 0.00 0.00 0.00 28 1010.2
20260506195308 75 210 3.0 10.0 0.00 0.00 0.00 28 1010.2
20260506194807 75 140 5.0 10.0 0.00 0.00 0.00 28 1010.3
20260506194306 74 250 2.0 10.0 0.00 0.00 0.00 30 1010.3
20260506193806 74 300 3.0 10.0 0.00 0.00 0.00 29 1010.4
20260506193307 75 266 3.0 7.0 0.00 0.00 0.00 29 1010.5
20260506192807 75 262 2.0 7.0 0.00 0.00 0.00 29 1010.5
20260506192307 74 51 1.0 5.0 0.00 0.00 0.00 29 1010.5
20260506191806 74 78 1.0 7.0 0.00 0.00 0.00 29 1010.7
20260506191307 73 210 3.0 10.0 0.00 0.00 0.00 31 1010.9
20260506190806 73 258 4.0 10.0 0.00 0.00 0.00 31 1010.8
20260506190306 73 296 3.0 11.0 0.00 0.00 0.00 32 1010.9
20260506185805 74 295 4.0 11.0 0.00 0.00 0.00 30 1010.9
20260506185530 74 289 2.0 7.0 0.00 0.00 0.00 31 1010.8
20260506184806 72 168 2.0 9.0 0.00 0.00 0.00 33 1010.8
20260506184307 72 285 2.0 9.0 0.00 0.00 0.00 35 1010.9
20260506184035 72 27 3.0 9.0 0.00 0.00 0.00 33 1010.9
20260506183305 73 0 3.0 9.0 0.00 0.00 0.00 32 1011.0
20260506182806 73 226 3.0 9.0 0.00 0.00 0.00 33 1011.1
20260506182307 72 200 3.0 6.0 0.00 0.00 0.00 34 1011.2
20260506181805 72 296 2.0 6.0 0.00 0.00 0.00 34 1011.2
20260506181304 72 252 2.0 7.0 0.00 0.00 0.00 33 1011.3
20260506180805 72 268 3.0 7.0 0.00 0.00 0.00 33 1011.4
20260506180310 72 206 3.0 6.0 0.00 0.00 0.00 33 1011.3
20260506180027 72 254 0.0 5.0 0.00 0.00 0.00 34 1011.3
20260506175306 70 271 0.0 6.0 0.00 0.00 0.00 34 1011.3
20260506174805 70 292 1.0 6.0 0.00 0.00 0.00 34 1011.3
20260506174305 71 248 2.0 6.0 0.00 0.00 0.00 34 1011.4
20260506174249 71 254 2.0 6.0 0.00 0.00 0.00 35 1011.3
20260506173303 71 241 2.0 6.0 0.00 0.00 0.00 34 1011.4
20260506172803 70 310 3.0 6.0 0.00 0.00 0.00 34 1011.4
20260506172306 70 261 2.0 10.0 0.00 0.00 0.00 35 1011.4
20260506171804 70 251 3.0 10.0 0.00 0.00 0.00 36 1011.4
20260506171304 70 341 3.0 6.0 0.00 0.00 0.00 34 1011.2
20260506170804 70 212 2.0 6.0 0.00 0.00 0.00 33 1011.4
20260506170527 69 202 1.0 6.0 0.00 0.00 0.00 36 1011.4
20260506165804 68 151 1.0 6.0 0.00 0.00 0.00 37 1011.4
20260506165305 68 63 3.0 7.0 0.00 0.00 0.00 37 1011.4
20260506164803 68 230 2.0 7.0 0.00 0.00 0.00 39 1011.3
20260506164303 68 281 2.0 5.0 0.00 0.00 0.00 40 1011.4
20260506163804 67 272 1.0 5.0 0.00 0.00 0.00 42 1011.4
20260506163303 66 279 2.0 7.0 0.00 0.00 0.00 43 1011.3
20260506162803 67 283 3.0 7.0 0.00 0.00 0.00 44 1011.3
20260506162522 66 298 2.0 5.0 0.00 0.00 0.00 43 1011.3
20260506161803 66 250 1.0 5.0 0.00 0.00 0.00 44 1011.2
20260506161303 66 199 2.0 5.0 0.00 0.00 0.00 44 1011.2
20260506160801 66 306 2.0 5.0 0.00 0.00 0.00 44 1011.3
20260506160302 66 121 2.0 6.0 0.00 0.00 0.00 44 1011.3
20260506160026 66 226 2.0 6.0 0.00 0.00 0.00 45 1011.2
20260506155305 65 216 2.0 4.0 0.00 0.00 0.00 45 1011.2
20260506154802 65 233 1.0 3.0 0.00 0.00 0.00 46 1011.1
20260506154302 64 13 0.0 4.0 0.00 0.00 0.00 46 1011.2
20260506153802 64 206 0.0 5.0 0.00 0.00 0.00 48 1011.1
20260506153303 64 169 2.0 5.0 0.00 0.00 0.00 49 1011.1
20260506152758 64 279 2.0 4.0 0.00 0.00 0.00 49 1011.2
20260506152305 64 314 1.0 3.0 0.00 0.00 0.00 48 1011.2
20260506151801 65 226 1.0 3.0 0.00 0.00 0.00 48 1011.2
20260506151301 64 102 0.0 0.0 0.00 0.00 0.00 47 1011.2
20260506150801 63 102 0.0 0.0 0.00 0.00 0.00 47 1011.1
20260506150739 64 151 0.0 2.0 0.00 0.00 0.00 48 1011.2
20260506145801 63 213 0.0 3.0 0.00 0.00 0.00 48 1011.2
20260506145300 62 204 0.0 3.0 0.00 0.00 0.00 51 1011.1
20260506144800 62 248 0.0 0.0 0.00 0.00 0.00 51 1011.1
20260506144301 62 296 0.0 2.0 0.00 0.00 0.00 51 1011.2
20260506143800 63 296 1.0 2.0 0.00 0.00 0.00 49 1011.1
20260506143300 63 219 0.0 1.0 0.00 0.00 0.00 49 1011.2
20260506143021 63 180 0.0 1.0 0.00 0.00 0.00 50 1011.2
20260506142300 62 159 0.0 0.0 0.00 0.00 0.00 51 1011.2
20260506141800 61 159 0.0 0.0 0.00 0.00 0.00 52 1011.1
20260506141300 61 159 0.0 0.0 0.00 0.00 0.00 52 1011.2
20260506140800 61 159 0.0 0.0 0.00 0.00 0.00 52 1011.1
20260506140256 61 158 0.0 0.0 0.00 0.00 0.00 52 1011.1
20260506135758 61 159 0.0 0.0 0.00 0.00 0.00 53 1011.0
20260506135259 60 14 0.0 0.0 0.00 0.00 0.00 56 1011.0
20260506134759 58 14 0.0 0.0 0.00 0.00 0.00 61 1011.0
20260506134522 57 13 0.0 0.0 0.00 0.00 0.00 67 1011.0
20260506133759 56 14 0.0 0.0 0.00 0.00 0.00 67 1010.9
20260506133524 55 14 0.0 0.0 0.00 0.00 0.00 71 1010.9
20260506132758 54 14 0.0 0.0 0.00 0.00 0.00 71 1010.9
20260506132254 53 14 0.0 0.0 0.00 0.00 0.00 71 1010.8
20260506131755 53 14 0.0 0.0 0.00 0.00 0.00 74 1010.8
20260506131525 51 14 0.0 0.0 0.00 0.00 0.00 75 1010.8
20260506131111 51 14 0.0 0.0 0.00 0.00 0.00 76 1010.7
20260506131007 51 14 0.0 0.0 0.00 0.00 0.00 77 1010.8
20260506125757 51 14 0.0 0.0 0.00 0.00 0.00 76 1010.8
20260506125257 50 14 0.0 0.0 0.00 0.00 0.00 76 1010.7
20260506124758 50 14 0.0 0.0 0.00 0.00 0.00 76 1010.7
20260506124257 50 17 0.0 0.0 0.00 0.00 0.00 78 1010.5
20260506123753 50 1 0.0 0.0 0.00 0.00 0.00 79 1010.7
20260506123257 50 281 0.0 0.0 0.00 0.00 0.00 78 1010.5
20260506123022 50 281 0.0 0.0 0.00 0.00 0.00 78 1010.4
20260506122518 50 281 0.0 0.0 0.00 0.01 0.00 78 1010.4
20260506121757 50 281 0.0 0.0 0.00 0.01 0.00 77 1010.4
20260506121257 50 281 0.0 0.0 0.00 0.01 0.00 77 1010.3
20260506121240 50 281 0.0 0.0 0.00 0.01 0.00 78 1010.3
20260506120256 49 281 0.0 0.0 0.00 0.01 0.00 80 1010.2
20260506115752 49 281 0.0 0.0 0.00 0.01 0.00 79 1010.2
20260506115512 50 281 0.0 0.0 0.00 0.01 0.00 78 1010.1
20260506114755 50 281 0.0 0.0 0.00 0.02 0.00 78 1010.2
20260506114256 50 281 0.0 0.0 0.00 0.02 0.00 78 1010.0
20260506113756 50 281 0.0 0.0 0.00 0.02 0.00 77 1010.0
20260506113256 50 281 0.0 0.0 0.00 0.02 0.00 77 1010.1
20260506113014 51 281 0.0 0.0 0.00 0.02 0.00 77 1010.0
20260506112256 51 281 0.0 0.0 0.00 0.02 0.00 76 1010.0
20260506111756 51 281 0.0 0.0 0.00 0.02 0.00 76 1009.9
20260506111256 51 281 0.0 0.0 0.00 0.02 0.00 76 1009.9
20260506110756 51 281 0.0 0.0 0.00 0.03 0.00 76 1009.8
20260506110255 51 281 0.0 0.0 0.00 0.03 0.00 76 1009.8
20260506110024 51 281 0.0 0.0 0.00 0.03 0.00 76 1009.9
20260506105742 51 281 0.0 0.0 0.00 0.03 0.00 75 1009.9
20260506104755 51 281 0.0 0.0 0.00 0.04 0.00 75 1009.9
20260506104256 51 281 0.0 0.0 0.00 0.04 0.00 74 1009.8
20260506104242 51 281 0.0 0.0 0.00 0.04 0.00 73 1009.8